Hourly Weather Bolshie Kibyachi

Today, 25 July, Sunday

Time Temperature Precipitation Wind Pressure Humidity
00:00 +10°C° 0 mm 3 mps 750 mmHg 71%
01:00 +9°C° 0 mm 3 mps 750 mmHg 69%
02:00 +9°C° 0 mm 3 mps 750 mmHg 66%
03:00 +9°C° 0 mm 2 mps 751 mmHg 67%
04:00 +10°C° 0 mm 2 mps 751 mmHg 65%
05:00 +12°C° 0 mm 2 mps 752 mmHg 63%
06:00 +13°C° 0 mm 2 mps 752 mmHg 61%
07:00 +15°C° 0 mm 2 mps 753 mmHg 55%
08:00 +16°C° 0 mm 2 mps 753 mmHg 49%
09:00 +18°C° 0 mm 3 mps 753 mmHg 43%
10:00 +19°C° 0 mm 3 mps 753 mmHg 41%
11:00 +19°C° 0 mm 3 mps 754 mmHg 39%
12:00 +20°C° 0 mm 3 mps 754 mmHg 37%
13:00 +20°C° 0 mm 3 mps 754 mmHg 37%
14:00 +21°C° 0 mm 3 mps 754 mmHg 37%
15:00 +21°C° 0 mm 3 mps 754 mmHg 37%
16:00 +20°C° 0 mm 2 mps 754 mmHg 43%
17:00 +20°C° 0 mm 2 mps 754 mmHg 48%
18:00 +19°C° 0 mm 2 mps 754 mmHg 53%
19:00 +19°C° 0 mm 1 mps 754 mmHg 54%
20:00 +16°C° 0 mm 1 mps 755 mmHg 56%
21:00 +14°C° 0 mm 1 mps 755 mmHg 57%
22:00 +14°C° 0 mm 1 mps 755 mmHg 57%
23:00 +14°C° 0 mm 1 mps 755 mmHg 57%

Tomorrow, 26 July, Monday

Time Temperature Precipitation Wind Pressure Humidity
00:00 +14°C° 0 mm 1 mps 755 mmHg 57%
01:00 +14°C° 0 mm 2 mps 755 mmHg 57%
02:00 +14°C° 0 mm 2 mps 755 mmHg 57%
03:00 +14°C° 0 mm 2 mps 755 mmHg 57%
04:00 +15°C° 0 mm 2 mps 755 mmHg 59%
05:00 +15°C° 0 mm 2 mps 755 mmHg 61%
06:00 +16°C° 0 mm 2 mps 755 mmHg 63%
07:00 +17°C° 0 mm 3 mps 755 mmHg 58%
08:00 +19°C° 0 mm 3 mps 755 mmHg 53%
09:00 +20°C° 0 mm 3 mps 756 mmHg 49%
10:00 +21°C° 0 mm 3 mps 755 mmHg 47%
11:00 +21°C° 0 mm 3 mps 755 mmHg 45%
12:00 +22°C° 0 mm 3 mps 755 mmHg 43%
13:00 +22°C° 0 mm 3 mps 755 mmHg 44%
14:00 +22°C° 0 mm 3 mps 755 mmHg 45%
15:00 +22°C° 0 mm 3 mps 755 mmHg 46%
16:00 +21°C° 0 mm 3 mps 755 mmHg 50%
17:00 +20°C° 0 mm 3 mps 754 mmHg 55%
18:00 +19°C° 0 mm 2 mps 754 mmHg 59%
19:00 +19°C° 0 mm 3 mps 754 mmHg 60%
20:00 +18°C° 0 mm 3 mps 754 mmHg 61%
21:00 +17°C° 0 mm 3 mps 754 mmHg 62%
22:00 +16°C° 0 mm 3 mps 754 mmHg 64%
23:00 +16°C° 0 mm 3 mps 754 mmHg 66%

Day after tomorrow, 27 July, Tuesday

Time Temperature Precipitation Wind Pressure Humidity
00:00 +14°C° 0 mm 3 mps 754 mmHg 69%
01:00 +14°C° 0 mm 3 mps 753 mmHg 67%
02:00 +14°C° 0 mm 3 mps 753 mmHg 65%
03:00 +16°C° 0 mm 3 mps 753 mmHg 63%
04:00 +16°C° 0 mm 3 mps 753 mmHg 64%
05:00 +17°C° 0 mm 3 mps 753 mmHg 64%
06:00 +17°C° 0 mm 3 mps 753 mmHg 65%
07:00 +18°C° 0 mm 3 mps 753 mmHg 64%
08:00 +19°C° 0 mm 4 mps 753 mmHg 64%
09:00 +20°C° 0 mm 4 mps 752 mmHg 63%
10:00 +21°C° 0 mm 4 mps 752 mmHg 60%
11:00 +22°C° 0 mm 5 mps 752 mmHg 57%
12:00 +23°C° 0 mm 5 mps 752 mmHg 54%
13:00 +23°C° 0.8 mm 5 mps 751 mmHg 58%
14:00 +22°C° 0.8 mm 5 mps 751 mmHg 62%
15:00 +22°C° 0.8 mm 6 mps 751 mmHg 66%
16:00 +21°C° 0.1 mm 5 mps 751 mmHg 64%
17:00 +21°C° 0.1 mm 4 mps 751 mmHg 63%
18:00 +20°C° 0.1 mm 3 mps 751 mmHg 61%
19:00 +18°C° 0 mm 3 mps 751 mmHg 63%
20:00 +17°C° 0 mm 3 mps 751 mmHg 66%
21:00 +14°C° 0 mm 3 mps 751 mmHg 68%
22:00 +14°C° 0 mm 2 mps 751 mmHg 71%
23:00 +13°C° 0 mm 2 mps 752 mmHg 74%

28 July, Wednesday

Time Temperature Precipitation Wind Pressure Humidity
00:00 +12°C° 0 mm 2 mps 752 mmHg 76%
01:00 +12°C° 0 mm 1 mps 752 mmHg 78%
02:00 +12°C° 0 mm 1 mps 752 mmHg 79%
03:00 +11°C° 0 mm 1 mps 752 mmHg 80%
04:00 +13°C° 0 mm 1 mps 751 mmHg 76%
05:00 +14°C° 0 mm 1 mps 751 mmHg 72%
06:00 +15°C° 0 mm 1 mps 751 mmHg 67%
07:00 +17°C° 0 mm 2 mps 751 mmHg 61%
08:00 +19°C° 0 mm 2 mps 751 mmHg 54%
09:00 +21°C° 0 mm 3 mps 751 mmHg 47%
10:00 +21°C° 0 mm 3 mps 751 mmHg 45%
11:00 +22°C° 0 mm 4 mps 750 mmHg 43%
12:00 +23°C° 0 mm 4 mps 750 mmHg 40%
13:00 +25°C° 0 mm 4 mps 750 mmHg 39%
14:00 +25°C° 0 mm 5 mps 750 mmHg 38%
15:00 +25°C° 0 mm 5 mps 749 mmHg 36%
16:00 +25°C° 0 mm 3 mps 749 mmHg 42%
17:00 +24°C° 0 mm 2 mps 749 mmHg 48%
18:00 +23°C° 0 mm 1 mps 749 mmHg 54%
19:00 +21°C° 0 mm 2 mps 749 mmHg 55%
20:00 +19°C° 0 mm 2 mps 748 mmHg 57%
21:00 +17°C° 0 mm 2 mps 748 mmHg 59%
22:00 +17°C° 0 mm 3 mps 748 mmHg 63%
23:00 +17°C° 0 mm 3 mps 747 mmHg 67%

29 July, Thursday

Time Temperature Precipitation Wind Pressure Humidity
00:00 +16°C° 0 mm 3 mps 747 mmHg 71%
01:00 +16°C° 0.1 mm 3 mps 747 mmHg 76%
02:00 +16°C° 0.1 mm 3 mps 746 mmHg 81%
03:00 +14°C° 0.1 mm 3 mps 746 mmHg 86%
04:00 +15°C° 0.2 mm 4 mps 746 mmHg 86%
05:00 +17°C° 0.2 mm 4 mps 746 mmHg 87%
06:00 +18°C° 0.2 mm 4 mps 746 mmHg 87%
07:00 +19°C° 0.1 mm 4 mps 745 mmHg 82%
08:00 +20°C° 0.1 mm 4 mps 745 mmHg 78%
09:00 +21°C° 0.1 mm 4 mps 745 mmHg 73%
10:00 +22°C° 0 mm 4 mps 744 mmHg 68%
11:00 +23°C° 0 mm 4 mps 744 mmHg 63%
12:00 +26°C° 0 mm 4 mps 744 mmHg 58%
13:00 +23°C° 0.6 mm 4 mps 744 mmHg 67%
14:00 +22°C° 0.6 mm 4 mps 744 mmHg 76%
15:00 +20°C° 0.6 mm 4 mps 744 mmHg 85%
16:00 +19°C° 1 mm 3 mps 744 mmHg 89%
17:00 +18°C° 1 mm 2 mps 743 mmHg 92%
18:00 +19°C° 1 mm 1 mps 743 mmHg 95%
19:00 +18°C° 0 mm 1 mps 743 mmHg 95%
20:00 +18°C° 0 mm 1 mps 743 mmHg 94%
21:00 +18°C° 0 mm 1 mps 743 mmHg 94%
22:00 +18°C° 0 mm 1 mps 743 mmHg 94%
23:00 +16°C° 0 mm 1 mps 743 mmHg 94%

30 July, Friday

Time Temperature Precipitation Wind Pressure Humidity
00:00 +16°C° 0 mm 1 mps 743 mmHg 95%
01:00 +16°C° 0 mm 1 mps 743 mmHg 95%
02:00 +15°C° 0 mm 1 mps 743 mmHg 95%
03:00 +15°C° 0 mm 2 mps 743 mmHg 95%
04:00 +15°C° 0 mm 2 mps 744 mmHg 93%
05:00 +16°C° 0 mm 2 mps 744 mmHg 92%
06:00 +17°C° 0 mm 2 mps 744 mmHg 91%
07:00 +18°C° 0 mm 3 mps 744 mmHg 85%
08:00 +20°C° 0 mm 3 mps 745 mmHg 79%
09:00 +21°C° 0 mm 3 mps 745 mmHg 73%
10:00 +24°C° 0 mm 3 mps 745 mmHg 65%
11:00 +25°C° 0 mm 3 mps 746 mmHg 57%
12:00 +26°C° 0 mm 3 mps 746 mmHg 49%
13:00 +26°C° 0 mm 3 mps 746 mmHg 46%
14:00 +26°C° 0 mm 3 mps 746 mmHg 44%
15:00 +27°C° 0 mm 3 mps 746 mmHg 41%
16:00 +26°C° 0 mm 2 mps 747 mmHg 46%
17:00 +25°C° 0 mm 2 mps 747 mmHg 51%
18:00 +25°C° 0 mm 1 mps 747 mmHg 56%
19:00 +23°C° 0 mm 1 mps 747 mmHg 59%
20:00 +21°C° 0 mm 1 mps 748 mmHg 62%
21:00 +19°C° 0 mm 1 mps 748 mmHg 66%
22:00 +18°C° 0 mm 1 mps 748 mmHg 67%
23:00 +18°C° 0 mm 1 mps 748 mmHg 68%
Show more

We Need Your Consent

Meteoprog and our Service Providers may store and access personal data such as cookies, device identifiers or other similar technologies on your device and process such data to personalise content and ads, as well as provide social media features and to analyse the traffic.

  • Store and/or access information on your device

    Cookies, device identifiers or other information can be stored or accessed on your device for the purposes indicated above.

  • Personalised ads and content, ad and content measurement, audience insights, and products development

    Ads and content can be personalised based on a profile. More data can be added to better personalise ads and content. Ad and content performance can be measured. Insights about the audience who saw the ads and content can be derived. Such data can be used to develop or improve user’s experience, systems and software.

By clicking ‘I Agree’ you will allow the use of indicated cookies, device identifiers, web beacons or other similar technologies. Your settings can be changed in the browser on your device.

For certain purposes, legitimate interests may be relied on, rather than consent. You can read more about this in our Privacy and Cookie Policy.